DAL71 KBOS-EGKK

Flight info

Callsign DAL71
Flight time N/A
Altitude 39000
Route LBSTA8 LBSTA DCT ALLEX N503B ALLRY/M084F400 NATV GISTI/N0490F410 DCT CRK DCT ELTIG DCT NORLA DCT FONZU DCT ELRIP DCT OTMET
Aircraft A359/H-SDE2E3GHIJ3J4J5LM1ORWXY/LB1D1

Departure

Time 2026-05-08 01:00
Airport Boston Logan International Airport (KBOS)

Arrival

Time N/A
Airport London Gatwick Airport (EGKK)
Time Latitude Longitude Altitude Speed Heading
2026-05-08 00:40 42.36798 -71.01419 32 ft 0 kts 260°
2026-05-08 00:45 42.36799 -71.01411 32 ft 4 kts 257°
2026-05-08 00:45 42.36810 -71.01380 32 ft 4 kts 224°
2026-05-08 00:46 42.36831 -71.01361 32 ft 4 kts 191°
2026-05-08 00:46 42.36856 -71.01362 32 ft 4 kts 151°
2026-05-08 00:46 42.36863 -71.01368 32 ft 0 kts 135°
2026-05-08 00:50 42.36863 -71.01367 32 ft 1 kts 135°
2026-05-08 00:50 42.36833 -71.01327 32 ft 10 kts 135°
2026-05-08 00:50 42.36798 -71.01281 32 ft 1 kts 139°
2026-05-08 00:51 42.36763 -71.01252 32 ft 11 kts 155°
2026-05-08 00:51 42.36657 -71.01262 32 ft 20 kts 195°
2026-05-08 00:51 42.36517 -71.01334 32 ft 23 kts 206°
2026-05-08 00:51 42.36436 -71.01383 32 ft 0 kts 202°
2026-05-08 00:52 42.36378 -71.01386 32 ft 12 kts 149°
2026-05-08 00:52 42.36338 -71.01315 32 ft 0 kts 122°
2026-05-08 00:53 42.36323 -71.01285 32 ft 10 kts 122°
2026-05-08 00:53 42.36265 -71.01156 32 ft 21 kts 117°
2026-05-08 00:53 42.36195 -71.00949 32 ft 27 kts 114°
2026-05-08 00:53 42.36159 -71.00840 32 ft 0 kts 114°
2026-05-08 00:54 42.36154 -71.00827 32 ft 0 kts 114°
2026-05-08 00:54 42.36147 -71.00805 32 ft 7 kts 114°
2026-05-08 00:55 42.36120 -71.00714 33 ft 14 kts 110°
2026-05-08 00:55 42.36080 -71.00556 32 ft 22 kts 109°
2026-05-08 00:55 42.36024 -71.00338 32 ft 27 kts 109°
2026-05-08 00:55 42.35965 -71.00115 32 ft 24 kts 116°
2026-05-08 00:56 42.35910 -71.00020 32 ft 0 kts 135°
2026-05-08 00:57 42.35905 -71.00014 32 ft 4 kts 135°
2026-05-08 00:57 42.35863 -70.99959 32 ft 13 kts 135°
2026-05-08 00:57 42.35778 -70.99846 32 ft 22 kts 135°
2026-05-08 00:57 42.35654 -70.99679 32 ft 29 kts 135°
2026-05-08 00:58 42.35510 -70.99487 32 ft 17 kts 131°
2026-05-08 00:58 42.35493 -70.99392 32 ft 0 kts 78°
2026-05-08 00:58 42.35494 -70.99388 32 ft 2 kts 78°
2026-05-08 00:58 42.35503 -70.99328 32 ft 11 kts 78°
2026-05-08 00:59 42.35555 -70.99296 32 ft 11 kts 330°
2026-05-08 00:59 42.35576 -70.99320 32 ft 0 kts 317°
2026-05-08 01:00 42.35679 -70.99456 32 ft 66 kts 315°
2026-05-08 01:00 42.36267 -71.00244 31 ft 168 kts 314°
2026-05-08 01:00 42.37200 -71.01555 674 ft 209 kts 312°
2026-05-08 01:01 42.38246 -71.03050 1813 ft 234 kts 309°
2026-05-08 01:01 42.39266 -71.05051 2583 ft 284 kts 301°
2026-05-08 01:01 42.40266 -71.07377 3018 ft 276 kts 299°
2026-05-08 01:01 42.41272 -71.09505 3178 ft 265 kts 311°
2026-05-08 01:02 42.42799 -71.10865 3201 ft 265 kts 336°
2026-05-08 01:02 42.44519 -71.11773 3319 ft 267 kts 339°
2026-05-08 01:02 42.46257 -71.12661 3843 ft 272 kts 338°
2026-05-08 01:02 42.48018 -71.13574 4631 ft 271 kts 339°
2026-05-08 01:03 42.49866 -71.14072 5301 ft 275 kts
2026-05-08 01:03 42.51712 -71.13440 5945 ft 278 kts 28°
2026-05-08 01:03 42.53161 -71.11715 6586 ft 280 kts 51°
2026-05-08 01:03 42.54330 -71.09576 7202 ft 284 kts 55°
2026-05-08 01:04 42.55477 -71.07380 7807 ft 287 kts 54°
2026-05-08 01:04 42.56644 -71.05166 8406 ft 290 kts 54°
2026-05-08 01:04 42.57827 -71.02938 8989 ft 293 kts 54°
2026-05-08 01:04 42.59029 -71.00686 9559 ft 296 kts 54°
2026-05-08 01:05 42.60243 -70.98418 10119 ft 299 kts 54°
2026-05-08 01:05 42.61483 -70.96102 10511 ft 308 kts 54°
2026-05-08 01:05 42.62771 -70.93697 10738 ft 322 kts 54°
2026-05-08 01:05 42.64115 -70.91186 10952 ft 334 kts 54°
2026-05-08 01:06 42.65507 -70.88586 11152 ft 346 kts 54°
2026-05-08 01:06 42.66946 -70.85893 11339 ft 357 kts 54°
2026-05-08 01:06 42.68427 -70.83122 11526 ft 367 kts 54°
2026-05-08 01:06 42.69939 -70.80289 11820 ft 372 kts 54°
2026-05-08 01:07 42.70946 -70.78400 12048 ft 374 kts 54°
2026-05-08 01:07 42.71418 -70.77515 12157 ft 375 kts 54°
2026-05-08 01:07 42.72956 -70.74629 12503 ft 377 kts 54°
2026-05-08 01:08 42.74500 -70.71728 12831 ft 380 kts 54°
2026-05-08 01:08 42.76053 -70.68805 13150 ft 382 kts 54°
2026-05-08 01:08 42.77617 -70.65861 13464 ft 384 kts 54°
2026-05-08 01:08 42.79165 -70.62943 13757 ft 386 kts 54°
2026-05-08 01:09 42.80745 -70.59960 14049 ft 388 kts 54°
2026-05-08 01:09 42.82272 -70.56900 14332 ft 390 kts 57°
2026-05-08 01:09 42.83741 -70.53782 14606 ft 392 kts 58°
2026-05-08 01:09 42.85196 -70.50625 14873 ft 394 kts 58°
2026-05-08 01:10 42.86653 -70.47460 15136 ft 396 kts 58°
2026-05-08 01:10 42.88128 -70.44277 15395 ft 398 kts 58°
2026-05-08 01:10 42.89620 -70.41080 15647 ft 399 kts 57°
2026-05-08 01:10 42.90611 -70.38968 15810 ft 400 kts 57°
2026-05-08 01:11 42.92489 -70.34979 16112 ft 403 kts 57°
2026-05-08 01:11 42.93878 -70.32033 16324 ft 404 kts 57°
2026-05-08 01:11 42.95902 -70.27737 16634 ft 406 kts 57°
2026-05-08 01:12 42.96934 -70.25544 16785 ft 407 kts 57°
2026-05-08 01:12 42.98465 -70.22285 17001 ft 409 kts 57°
2026-05-08 01:12 42.99985 -70.19046 17210 ft 410 kts 57°
2026-05-08 01:12 43.01530 -70.15751 17495 ft 413 kts 57°
2026-05-08 01:13 43.03083 -70.12432 17868 ft 415 kts 57°
2026-05-08 01:13 43.04642 -70.09097 18223 ft 417 kts 57°
2026-05-08 01:13 43.06210 -70.05740 18570 ft 420 kts 57°
2026-05-08 01:13 43.07784 -70.02365 18914 ft 422 kts 57°
2026-05-08 01:14 43.09365 -69.98971 19256 ft 425 kts 57°
2026-05-08 01:14 43.10957 -69.95550 19594 ft 427 kts 57°
2026-05-08 01:14 43.12558 -69.92106 19935 ft 430 kts 57°
2026-05-08 01:14 43.14169 -69.88637 20270 ft 432 kts 58°
2026-05-08 01:15 43.15786 -69.85150 20597 ft 435 kts 58°
2026-05-08 01:15 43.17408 -69.81648 20914 ft 437 kts 58°
2026-05-08 01:15 43.19048 -69.78104 21224 ft 440 kts 58°
2026-05-08 01:15 43.20668 -69.74598 21523 ft 442 kts 58°
2026-05-08 01:16 43.22318 -69.71023 21825 ft 444 kts 58°
2026-05-08 01:16 43.23979 -69.67420 22118 ft 447 kts 58°
2026-05-08 01:16 43.25640 -69.63811 22407 ft 449 kts 58°
2026-05-08 01:16 43.27314 -69.60171 22690 ft 451 kts 58°
2026-05-08 01:17 43.28994 -69.56515 22965 ft 454 kts 58°
2026-05-08 01:17 43.30678 -69.52842 23234 ft 456 kts 58°
2026-05-08 01:17 43.32374 -69.49141 23498 ft 458 kts 58°
2026-05-08 01:17 43.34072 -69.45431 23755 ft 460 kts 58°
2026-05-08 01:18 43.35778 -69.41697 24007 ft 462 kts 58°
2026-05-08 01:18 43.37491 -69.37942 24257 ft 465 kts 58°
2026-05-08 01:18 43.39212 -69.34167 24504 ft 467 kts 58°
2026-05-08 01:18 43.40939 -69.30373 24752 ft 469 kts 58°
2026-05-08 01:19 43.42673 -69.26558 25003 ft 471 kts 58°
2026-05-08 01:19 43.44414 -69.22723 25246 ft 473 kts 58°
2026-05-08 01:19 43.46139 -69.18919 25485 ft 475 kts 58°
2026-05-08 01:19 43.47913 -69.15002 25726 ft 477 kts 58°
2026-05-08 01:20 43.49651 -69.11159 25962 ft 479 kts 58°
2026-05-08 01:20 43.51415 -69.07253 26196 ft 481 kts 58°
2026-05-08 01:20 43.53191 -69.03316 26433 ft 483 kts 58°
2026-05-08 01:20 43.54971 -68.99363 26665 ft 485 kts 58°
2026-05-08 01:21 43.56754 -68.95399 26894 ft 487 kts 58°
2026-05-08 01:21 43.58524 -68.91458 27122 ft 489 kts 58°
2026-05-08 01:21 43.60322 -68.87450 27359 ft 491 kts 58°
2026-05-08 01:21 43.62126 -68.83424 27591 ft 494 kts 58°
2026-05-08 01:22 43.63936 -68.79377 27828 ft 496 kts 58°
2026-05-08 01:22 43.65753 -68.75310 28061 ft 498 kts 58°
2026-05-08 01:22 43.67571 -68.71235 28292 ft 500 kts 58°
2026-05-08 01:22 43.69399 -68.67130 28512 ft 502 kts 58°
2026-05-08 01:23 43.71232 -68.63011 28722 ft 504 kts 58°
2026-05-08 01:23 43.73065 -68.58882 28923 ft 506 kts 58°
2026-05-08 01:23 43.74889 -68.54771 29115 ft 508 kts 58°
2026-05-08 01:23 43.76738 -68.50597 29303 ft 509 kts 58°
2026-05-08 01:24 43.78591 -68.46408 29482 ft 511 kts 58°
2026-05-08 01:24 43.80448 -68.42203 29658 ft 513 kts 58°
2026-05-08 01:24 43.82308 -68.37986 29826 ft 514 kts 58°
2026-05-08 01:24 43.84175 -68.33745 29986 ft 516 kts 59°
2026-05-08 01:25 43.86043 -68.29497 30143 ft 517 kts 59°
2026-05-08 01:25 43.87920 -68.25223 30294 ft 519 kts 59°
2026-05-08 01:25 43.89799 -68.20937 30448 ft 520 kts 59°
2026-05-08 01:25 43.91679 -68.16642 30584 ft 522 kts 59°
2026-05-08 01:26 43.93563 -68.12332 30711 ft 523 kts 59°
2026-05-08 01:26 43.95449 -68.08010 30833 ft 524 kts 59°
2026-05-08 01:26 43.97345 -68.03660 30957 ft 525 kts 59°
2026-05-08 01:26 43.99236 -67.99314 31066 ft 526 kts 59°
2026-05-08 01:27 44.01134 -67.94946 31168 ft 528 kts 59°
2026-05-08 01:27 44.04906 -67.86247 31362 ft 530 kts 59°
2026-05-08 01:28 44.08715 -67.77432 31542 ft 531 kts 59°
2026-05-08 01:28 44.12524 -67.68592 31703 ft 533 kts 59°
2026-05-08 01:29 44.16338 -67.59713 31849 ft 534 kts 59°
2026-05-08 01:29 44.20154 -67.50801 31982 ft 536 kts 59°
2026-05-08 01:30 44.23947 -67.41915 32098 ft 537 kts 59°
2026-05-08 01:30 44.27773 -67.32923 32205 ft 538 kts 59°
2026-05-08 01:31 44.31593 -67.23920 32303 ft 539 kts 59°
2026-05-08 01:31 44.35413 -67.14886 32392 ft 540 kts 59°
2026-05-08 01:32 44.39207 -67.05886 32468 ft 541 kts 59°
2026-05-08 01:32 44.43275 -66.97034 32533 ft 541 kts 54°
2026-05-08 01:33 44.47693 -66.88479 32598 ft 540 kts 53°